Lakeville, MN

4:08 PM CDT on June 27, 2017 (GMT -0500)
Airlake

Weather History for KLVN - March, 2012

Change the Weather History Date:

Saturday, March 17, 2012

  Actual Average Record
Temperature  
Mean Temperature 64 °F -  
Max Temperature 78 °F 38 °F 78 °F (2012)
Min Temperature 51 °F 22 °F -4 °F (1967)
Growing Degree Days 14 (Base 50)    
Moisture  
Dew Point 57 °F    
Average Humidity 75    
Maximum Humidity 100    
Minimum Humidity 50    
Precipitation  
Precipitation 0.00 in - - ()
Sea Level Pressure  
Sea Level Pressure 29.79 in    
Wind  
Wind Speed 8 mph (South)    
Max Wind Speed 20 mph    
Max Gust Speed 29 mph    
Visibility 10 miles    
Events      
Averages and records for this station are not official NWS values.
T = Trace of Precipitation, MM = Missing Value Source: NWS Daily Summary

Daily Weather History Graph

Daily Weather History Graph

Search for Another Location

Airport or City:

Trip Planner

Search our weather history database for the weather conditions in past years. The results will help you decide how hot, cold, wet, or windy it might be!

Date:

Astronomy

Mar. 17, 2012 Rise Set
Actual Time 7:20 AM CDT 7:22 PM CDT
Civil Twilight 6:51 AM CDT 7:51 PM CDT
Nautical Twilight 6:17 AM CDT 8:25 PM CDT
Astronomical Twilight 5:42 AM CDT 9:00 PM CDT
Moon 4:33 AM CDT (3/17) 2:36 PM CDT (3/17)
Length of Visible Light 12h 59m
Length of Day
12h 01m
Waning Crescent, 23% of the Moon is Illuminated
Mar 17
Waning Crescent
Mar 22
New
Mar 30
First Quarter
Apr 6
Full
Apr 13
Last Quarter

Hourly Weather History & Observations

Time (CDT) Temp. Dew Point Humidity Pressure Visibility Wind Dir Wind Speed Gust Speed Precip Events Conditions
12:14 AM 60.8 °F 53.6 °F 77% 29.81 in 10.0 mi South 5.8 mph - N/A   Clear
12:33 AM 60.8 °F 53.6 °F 77% 29.81 in 10.0 mi South 5.8 mph - N/A   Clear
12:53 AM 60.8 °F 53.6 °F 77% 29.81 in 10.0 mi SSE 3.5 mph - N/A   Clear
1:13 AM 55.4 °F 53.6 °F 94% 29.81 in 10.0 mi Calm Calm - N/A   Clear
1:33 AM 51.8 °F 51.8 °F 100% 29.81 in 10.0 mi Calm Calm - N/A   Clear
1:53 AM 55.4 °F 53.6 °F 94% 29.81 in 10.0 mi SSE 3.5 mph - N/A   Clear
2:12 AM 55.4 °F 53.6 °F 94% 29.81 in 10.0 mi SSE 5.8 mph - N/A   Clear
2:33 AM 55.4 °F 53.6 °F 94% 29.81 in 10.0 mi Calm Calm - N/A   Clear
2:53 AM 55.4 °F 53.6 °F 94% 29.81 in 10.0 mi SSE 4.6 mph - N/A   Clear
3:13 AM 55.4 °F 53.6 °F 94% 29.81 in 10.0 mi SSE 3.5 mph - N/A   Clear
3:33 AM 55.4 °F 53.6 °F 94% 29.80 in 10.0 mi SSE 5.8 mph - N/A   Clear
3:53 AM 55.4 °F 53.6 °F 94% 29.80 in 10.0 mi SSE 4.6 mph - N/A   Clear
4:13 AM 55.4 °F 53.6 °F 94% 29.79 in 10.0 mi South 5.8 mph - N/A   Clear
4:33 AM 55.4 °F 53.6 °F 94% 29.80 in 10.0 mi South 4.6 mph - N/A   Clear
4:54 AM 55.4 °F 53.6 °F 94% 29.80 in 10.0 mi South 4.6 mph - N/A   Clear
5:13 AM 55.4 °F 53.6 °F 94% 29.80 in 10.0 mi South 5.8 mph - N/A   Clear
5:33 AM 57.2 °F 53.6 °F 88% 29.80 in 10.0 mi South 6.9 mph - N/A   Scattered Clouds
5:53 AM 57.2 °F 55.4 °F 94% 29.80 in 10.0 mi South 6.9 mph - N/A   Mostly Cloudy
6:13 AM 59.0 °F 55.4 °F 88% 29.80 in 10.0 mi South 8.1 mph - N/A   Mostly Cloudy
6:33 AM 59.0 °F 55.4 °F 88% 29.80 in 10.0 mi South 8.1 mph - N/A   Mostly Cloudy
7:13 AM 55.4 °F 53.6 °F 94% 29.81 in 7.0 mi SE 4.6 mph - N/A   Scattered Clouds
7:33 AM 55.4 °F 55.4 °F 100% 29.81 in 7.0 mi South 5.8 mph - N/A   Clear
7:54 AM 59.0 °F 55.4 °F 88% 29.81 in 7.0 mi South 9.2 mph - N/A   Clear
8:13 AM 60.8 °F 57.2 °F 88% 29.81 in 7.0 mi South 10.4 mph - N/A   Clear
8:33 AM 60.8 °F 57.2 °F 88% 29.81 in 7.0 mi South 9.2 mph - N/A   Clear
8:54 AM 62.6 °F 59.0 °F 88% 29.81 in 7.0 mi South 11.5 mph - N/A   Clear
9:13 AM 64.4 °F 59.0 °F 83% 29.81 in 10.0 mi South 11.5 mph 17.3 mph N/A   Clear
9:33 AM 64.4 °F 60.8 °F 88% 29.82 in 10.0 mi South 12.7 mph - N/A   Clear
9:54 AM 66.2 °F 60.8 °F 83% 29.81 in 10.0 mi South 12.7 mph 20.7 mph N/A   Clear
10:13 AM 66.2 °F 60.8 °F 83% 29.82 in 10.0 mi South 13.8 mph 19.6 mph N/A   Clear
10:33 AM 68.0 °F 60.8 °F 78% 29.81 in 10.0 mi South 17.3 mph 25.3 mph N/A   Clear
10:54 AM 69.8 °F 60.8 °F 73% 29.81 in 10.0 mi South 19.6 mph 25.3 mph N/A   Clear
11:13 AM 69.8 °F 60.8 °F 73% 29.81 in 10.0 mi SSW 13.8 mph 23.0 mph N/A   Clear
11:33 AM 71.6 °F 60.8 °F 69% 29.81 in 10.0 mi South 16.1 mph 23.0 mph N/A   Clear
11:54 AM 71.6 °F 60.8 °F 69% 29.81 in 10.0 mi South 16.1 mph 28.8 mph N/A   Mostly Cloudy
12:13 PM 69.8 °F 60.8 °F 73% 29.81 in 10.0 mi South 18.4 mph - N/A   Overcast
12:33 PM 71.6 °F 60.8 °F 69% 29.81 in 10.0 mi South 18.4 mph 25.3 mph N/A   Overcast
12:54 PM 71.6 °F 60.8 °F 69% 29.80 in 10.0 mi South 17.3 mph 20.7 mph N/A   Mostly Cloudy
1:13 PM 73.4 °F 60.8 °F 65% 29.79 in 10.0 mi South 17.3 mph 26.5 mph N/A   Mostly Cloudy
1:33 PM 75.2 °F 60.8 °F 61% 29.79 in 10.0 mi South 19.6 mph 27.6 mph N/A   Mostly Cloudy
1:54 PM 75.2 °F 60.8 °F 61% 29.78 in 10.0 mi South 18.4 mph 24.2 mph N/A   Mostly Cloudy
2:13 PM 75.2 °F 60.8 °F 61% 29.78 in 10.0 mi South 18.4 mph 26.5 mph N/A   Scattered Clouds
2:33 PM 75.2 °F 60.8 °F 61% 29.76 in 10.0 mi South 16.1 mph 26.5 mph N/A   Mostly Cloudy
2:54 PM 77.0 °F 60.8 °F 57% 29.76 in 10.0 mi South 16.1 mph 23.0 mph N/A   Scattered Clouds
3:13 PM 75.2 °F 60.8 °F 61% 29.75 in 10.0 mi South 15.0 mph 24.2 mph N/A   Scattered Clouds
3:33 PM 78.8 °F 60.8 °F 54% 29.75 in 10.0 mi South 15.0 mph 20.7 mph N/A   Scattered Clouds
3:53 PM 77.0 °F 59.0 °F 54% 29.74 in 10.0 mi South 17.3 mph 23.0 mph N/A   Scattered Clouds
4:13 PM 77.0 °F 59.0 °F 54% 29.74 in 10.0 mi South 18.4 mph - N/A   Scattered Clouds
4:33 PM 75.2 °F 57.2 °F 53% 29.74 in 10.0 mi South 16.1 mph 24.2 mph N/A   Clear
4:53 PM 77.0 °F 59.0 °F 54% 29.74 in 10.0 mi South 11.5 mph 24.2 mph N/A   Scattered Clouds
5:13 PM 77.0 °F 59.0 °F 54% 29.73 in 10.0 mi South 15.0 mph 21.9 mph N/A   Scattered Clouds
5:33 PM 77.0 °F 57.2 °F 50% 29.73 in 10.0 mi South 13.8 mph 24.2 mph N/A   Scattered Clouds
5:53 PM 77.0 °F 57.2 °F 50% 29.73 in 10.0 mi South 15.0 mph 20.7 mph N/A   Clear
6:13 PM 75.2 °F 57.2 °F 53% 29.74 in 10.0 mi South 13.8 mph 20.7 mph N/A   Clear
6:33 PM 75.2 °F 57.2 °F 53% 29.74 in 10.0 mi South 15.0 mph 18.4 mph N/A   Clear
6:53 PM 75.2 °F 57.2 °F 53% 29.74 in 10.0 mi South 10.4 mph 20.7 mph N/A   Clear
7:13 PM 73.4 °F 57.2 °F 57% 29.74 in 10.0 mi South 10.4 mph - N/A   Clear
7:33 PM 73.4 °F 57.2 °F 57% 29.75 in 10.0 mi South 8.1 mph - N/A   Clear
7:53 PM 69.8 °F 57.2 °F 64% 29.75 in 10.0 mi South 5.8 mph - N/A   Clear
8:13 PM 69.8 °F 57.2 °F 64% 29.75 in 10.0 mi SSE 5.8 mph - N/A   Clear
8:33 PM 68.0 °F 55.4 °F 64% 29.75 in 10.0 mi SSE 5.8 mph - N/A   Clear
9:13 PM 66.2 °F 57.2 °F 73% 29.76 in 10.0 mi SSE 5.8 mph - N/A   Clear
9:33 PM 64.4 °F 57.2 °F 77% 29.76 in 10.0 mi SE 5.8 mph - N/A   Clear
9:53 PM 64.4 °F 55.4 °F 73% 29.77 in 10.0 mi SE 4.6 mph - N/A   Scattered Clouds
10:13 PM 64.4 °F 55.4 °F 73% 29.77 in 10.0 mi SSE 4.6 mph - N/A   Scattered Clouds
10:33 PM 64.4 °F 55.4 °F 73% 29.77 in 10.0 mi SSE 6.9 mph - N/A   Scattered Clouds
10:53 PM 66.2 °F 55.4 °F 68% 29.78 in 10.0 mi SSE 11.5 mph - N/A   Clear
11:13 PM 66.2 °F 57.2 °F 73% 29.78 in 10.0 mi South 10.4 mph - N/A   Clear
11:33 PM 66.2 °F 57.2 °F 73% 29.78 in 10.0 mi SSE 8.1 mph - N/A   Clear
11:53 PM 64.4 °F 57.2 °F 77% 29.78 in 10.0 mi South 8.1 mph - N/A   Clear